Change the Weather History Date:

Friday, December 28, 2012

  Actual Average Record
Temperature  
Mean Temperature 59 °F -  
Max Temperature 75 °F - - ()
Min Temperature 43 °F - - ()
Degree Days  
Heating Degree Days 6    
Growing Degree Days 9 (Base 50)    
Moisture  
Dew Point 40 °F    
Average Humidity 55    
Maximum Humidity 87    
Minimum Humidity 16    
Precipitation  
Precipitation 0.00 in - - ()
Sea Level Pressure  
Sea Level Pressure 30.34 in    
Wind  
Wind Speed 6 mph ()    
Max Wind Speed 13 mph    
Max Gust Speed -    
Visibility 6.0 miles    
Events      
T = Trace of Precipitation, MM = Missing Value Source: Averaged Metar Reports

Daily Weather History Graph

Daily Weather History Graph

Search for Another Location

Airport or City:

Trip Planner

Search our weather history database for the weather conditions in past years. The results will help you decide how hot, cold, wet, or windy it might be!

Date:

Astronomy

Dec. 28, 2012 Rise Set
Actual Time 7:33 AM WET 5:45 PM WET
Civil Twilight 7:06 AM WET 6:12 PM WET
Nautical Twilight 6:36 AM WET 6:42 PM WET
Astronomical Twilight 6:07 AM WET 7:11 PM WET
Moon 6:06 PM WET 7:21 AM WET
Length of Visible Light 11h 05m
Length of Day
10h 12m
Full, 100% of the Moon is Illuminated
Dec 28
Full
Jan 5
Last Quarter
Jan 11
New
Jan 18
First Quarter
Jan 27
Full

Hourly Weather History & Observations

Time (WET) Temp. Windchill Dew Point Humidity Pressure Visibility Wind Dir Wind Speed Gust Speed Precip Events Conditions
12:00 AM 49 °F - 42 °F 68% 30.36 in 6 mi ENE 4.6 mph - -  
12:00 AM 48.2 °F - 41.0 °F 76% 30.33 in - ENE 4.6 mph - N/A   Clear
1:00 AM 50.0 °F - 41.0 °F 71% 30.33 in - ESE 5.8 mph - N/A   Clear
2:00 AM 44.6 °F 42.2 °F 37.4 °F 76% 30.33 in - ENE 4.6 mph - N/A   Clear
3:00 AM 42.8 °F 39.3 °F 37.4 °F 81% 30.33 in - East 5.8 mph - N/A   Clear
4:00 AM 46.4 °F 42.9 °F 37.4 °F 71% 30.33 in - ENE 6.9 mph - N/A   Clear
6:00 AM 45 °F - 37 °F 64% 30.34 in 6 mi ENE 9.2 mph - -  
6:00 AM 44.6 °F 39.7 °F 37.4 °F 76% 30.30 in - ENE 9.2 mph - N/A   Unknown
7:00 AM 44.6 °F 40.2 °F 35.6 °F 71% 30.33 in - ENE 8.1 mph - N/A   Clear
8:00 AM 46.4 °F 42.4 °F 35.6 °F 66% 30.36 in - East 8.1 mph - N/A   Clear
9:00 AM 53 °F - 38 °F 44% 30.39 in 6 mi ENE 10.4 mph - -  
10:00 AM 60.8 °F - 37.4 °F 42% 30.39 in - ENE 9.2 mph - N/A   Clear
11:00 AM 66.2 °F - 35.6 °F 32% 30.39 in - ENE 8.1 mph - N/A   Clear
12:00 PM 71 °F - 34 °F 16% 30.37 in 6 mi ENE 6.9 mph - -  
1:00 PM 75.2 °F - 33.8 °F 22% 30.33 in - North 3.5 mph - N/A   Clear
2:00 PM 75.2 °F - 35.6 °F 24% 30.30 in - NW 9.2 mph - N/A   Clear
3:00 PM 72 °F - 37 °F 17% 30.30 in 6 mi West 11.5 mph - -  
3:00 PM 73.4 °F - 37.4 °F 27% 30.30 in - West 11.5 mph - N/A   Clear
4:00 PM 71.6 °F - 37.4 °F 29% 30.30 in - WSW 12.7 mph - N/A   Clear
5:00 PM 68.0 °F - 42.8 °F 40% 30.30 in - SW 11.5 mph - N/A   Clear
6:00 PM 63 °F - 47 °F 44% 30.32 in 6 mi SW 9.2 mph - -  
7:00 PM 60.8 °F - 50.0 °F 68% 30.33 in - South 8.1 mph - N/A   Clear
8:00 PM 59.0 °F - 51.8 °F 77% 30.33 in - South 8.1 mph - N/A   Clear
9:00 PM 58 °F - 50 °F 66% 30.38 in 6 mi South 3.5 mph - -  
9:00 PM 59.0 °F - 50.0 °F 72% 30.36 in - South 3.5 mph - N/A   Clear
11:00 PM 50.0 °F - 46.4 °F 87% 30.39 in - East 6.9 mph - N/A   Clear